Location: Beranovka
(49.9415°N, 12.8435°E)
Time: 22:54:28
(UTC+00:00)

USA 267 - Pass Details

Date: 10 August 2020
Orbit: 1101 x 1106 km, 123.0° (Epoch: 22 September)

Event Time Altitude Azimuth Distance (km) Brightness Sun altitude
Rises 21:38:56 0° 61° (ENE) 3,928 6.2 -21.6°
Reaches altitude 10° 21:41:26 10° 58° (ENE) 2,969 5.6 -21.7°
Maximum altitude 21:47:54 65° 339° (NNW) 1,204 3.6 -22.1°
Drops below altitude 10° 21:54:22 10° 259° (W) 2,965 5.6 -22.5°
Sets 21:56:52 0° 257° (WSW) 3,923 6.2 -22.7°
